Helicity
79 76 76 71 62 57 51 47 41 39 36 33 29 27 28 28 25 6 30 66 55 88 88 94 84 88 93 100 118 125 121 75 87 66 80 63 42 49 64 31 34 46 49 87 72
76 77 79 72 70 61 51 46 43 38 35 33 38 36 34 35 17 10 64 70 70 109 114 88 95 96 120 110 118 126 120 100 103 85 84 61 58 64 42 32 28 30 27 50 65
75 74 75 76 74 70 65 55 48 41 34 33 37 40 51 45 4 23 36 16 79 110 106 108 123 114 125 132 125 133 120 114 93 74 81 78 62 58 51 37 29 40 23 41 59
75 79 79 78 79 76 73 69 64 52 45 43 50 49 66 51 52 67 47 19 41 87 132 135 128 135 121 118 111 123 84 77 102 93 83 70 75 53 37 37 57 47 40 43 44
74 79 81 83 80 74 69 62 54 50 40 36 44 55 59 64 69 119 130 99 122 111 94 108 105 102 108 113 120 87 82 97 80 78 67 64 51 58 11 53 29 1 8 30 40
71 71 75 77 78 75 69 63 54 40 29 24 35 69 77 76 104 114 134 144 121 109 122 108 100 97 111 119 91 128 87 81 93 73 76 68 59 86 20 62 35 17 7 16 23
61 61 63 60 59 60 58 55 48 36 24 25 43 81 92 46 128 146 151 109 132 119 124 100 146 118 130 119 119 135 105 75 68 73 87 83 72 81 68 33 27 30 24 19 27
45 44 52 57 62 54 47 50 32 29 30 37 56 112 102 90 109 114 151 171 180 171 161 115 138 165 167 201 146 119 111 110 82 96 118 104 99 77 107 84 64 48 38 27 27
52 56 65 67 82 77 66 41 36 45 78 88 111 127 70 87 70 79 129 163 178 186 190 182 166 189 215 169 142 106 107 83 117 64 125 77 127 115 113 113 89 64 44 37 26
54 60 68 73 90 93 76 48 71 103 120 108 161 108 47 71 67 85 115 130 220 224 268 248 234 223 231 226 160 106 132 121 100 80 93 90 78 83 83 88 74 42 18 28 30
61 60 67 85 76 82 66 36 67 74 159 112 144 151 130 152 117 90 144 188 220 194 234 210 234 264 192 109 107 227 133 102 126 144 126 83 69 68 71 76 59 47 35 17 12
61 61 75 71 47 91 39 61 88 90 18 42 41 64 71 173 212 205 200 228 252 223 179 258 169 140 94 94 122 115 125 109 104 81 106 92 74 57 50 52 50 37 19 12 23
48 54 48 63 6 47 65 140 106 111 59 32 78 128 169 130 208 242 219 262 195 177 234 190 181 76 166 134 116 100 93 89 104 106 69 93 57 23 35 51 75 60 48 46 27
46 44 29 39 24 28 40 72 86 65 32 55 162 155 107 103 115 52 184 255 292 203 192 124 97 201 101 67 97 78 83 76 101 118 125 100 99 105 75 59 63 57 85 41 33
15 4 -20 -13 -33 -17 24 49 62 43 38 193 259 120 199 227 240 191 74 181 200 299 333 263 179 105 172 175 117 150 99 35 74 97 146 72 127 17 84 100 97 130 97 97 94
-12 -12 -19 -9 -7 8 12 37 64 56 47 358 356 415 464 251 227 176 109 133 174 212 187 150 195 134 99 93 99 153 176 182 147 132 112 92 100 46 30 100 118 162 151 156 137
-53 -52 -15 -27 -35 -30 -6 49 -3 90 357 390 442 430 469 383 324 265 204 169 231 271 171 142 113 178 192 156 146 158 191 204 153 190 154 194 76 125 156 114 117 115 117 162 187
-82 -33 5 27 10 9 22 27 32 386 398 329 261 246 268 326 285 343 215 164 171 231 232 185 175 104 159 161 184 96 158 245 169 148 125 188 78 138 201 123 140 159 134 159 195
-33 19 25 39 2 11 4 124 289 301 225 138 100 144 187 253 265 299 245 373 371 359 374 234 186 167 100 90 152 227 214 157 237 235 174 151 163 144 112 123 132 195 181 200 220
10 -35 20 10 -6 8 37 113 156 111 86 54 63 101 137 159 217 246 252 109 265 418 353 292 294 98 83 170 86 221 167 297 295 282 248 185 210 237 267 251 247 258 252 239 234
-7 -17 28 26 37 93 52 73 91 66 85 56 112 69 82 70 121 121 143 43 86 134 284 288 260 223 169 146 157 285 282 264 290 245 305 203 178 205 236 226 235 249 281 277 269
-33 -4 42 30 67 5 59 41 44 33 56 55 48 80 134 123 68 65 87 7 -25 -95 9 139 282 295 178 233 145 62 118 143 191 220 213 317 208 146 177 208 240 281 300 303 296
28 26 56 14 83 84 98 94 58 46 56 62 53 51 35 56 46 112 126 51 68 -42 -158 -138 157 468 405 214 373 402 348 309 111 174 169 190 208 151 155 215 267 302 323 306 318
55 97 75 78 93 112 115 115 95 39 30 42 13 14 22 30 9 35 76 89 136 47 28 -117 -187 -16 313 301 244 358 512 435 337 264 167 177 185 263 302 252 282 323 309 321 333
86 145 103 94 107 103 131 114 90 90 42 32 33 27 36 28 41 16 34 64 27 48 23 -20 -231 -127 -101 -72 105 247 254 251 556 401 299 286 311 425 393 327 290 265 282 328 356
115 127 141 71 90 96 127 137 98 62 72 29 51 29 25 21 -9 -14 11 29 31 12 51 12 -26 -75 -98 -71 -73 -76 158 170 193 163 378 386 335 564 501 361 344 374 367 367 383
128 121 127 91 107 114 128 100 75 53 37 43 14 6 -4 2 9 3 -6 11 -4 -0 11 5 3 -20 -207 -57 -36 -30 205 -27 -69 178 147 255 256 239 390 484 429 462 453 390 378
Wind_Speed
60 61 62 62 62 64 64 64 64 64 64 64 65 65 66 67 70 62 50 39 30 17 18 17 22 23 26 29 30 31 46 50 47 40 42 31 33 34 37 43 39 39 45 44 43
63 64 64 65 66 67 67 67 67 67 66 66 66 66 66 68 71 66 47 38 30 11 15 16 21 19 29 32 34 35 49 49 45 44 44 36 37 40 44 44 48 49 45 44 44
66 67 67 68 69 70 71 71 70 70 70 68 68 67 66 67 63 49 38 21 15 9 22 24 21 26 35 33 33 40 52 49 47 43 45 44 47 46 52 59 57 51 49 43 41
69 70 71 72 73 73 74 74 74 74 72 71 68 67 65 50 59 40 33 15 8 10 14 21 26 32 40 41 36 50 49 50 48 45 47 51 52 56 55 56 52 51 53 52 46
72 74 75 77 77 77 77 77 77 78 76 72 65 61 55 55 56 46 37 18 9 13 18 22 26 35 43 44 41 49 54 51 53 54 55 59 63 65 72 66 63 62 60 56 53
76 77 79 80 81 81 81 81 81 78 74 68 60 50 52 67 44 40 34 19 22 23 26 27 36 35 44 47 43 46 51 56 56 58 58 62 67 58 56 51 56 57 56 53 53
79 80 82 83 83 84 84 84 83 80 76 60 49 43 55 62 44 45 36 28 27 28 34 35 36 35 39 50 46 50 62 63 62 58 58 52 72 60 69 63 63 60 53 51 49
82 83 84 86 87 88 88 88 82 76 60 51 38 36 60 47 47 46 35 34 32 35 41 35 34 40 42 40 45 51 55 64 47 43 48 41 74 48 45 47 55 54 53 48 46
85 86 88 90 92 93 93 87 79 55 49 40 38 41 61 45 45 41 31 34 31 35 37 32 33 45 43 52 62 55 74 64 62 41 46 46 66 49 45 47 56 58 54 52 53
88 90 92 93 95 96 90 81 55 46 42 41 45 49 45 47 40 38 29 27 32 28 35 37 42 52 52 51 74 72 69 67 66 49 52 61 73 69 66 70 72 72 68 63 62
91 94 97 98 95 87 76 57 59 55 51 51 54 62 65 56 44 40 28 25 30 34 47 42 57 63 57 55 64 61 64 68 58 51 62 73 84 83 81 77 74 73 71 68 66
94 97 100 96 84 70 58 55 56 64 88 70 66 77 71 65 68 47 24 32 37 51 44 55 75 58 58 58 64 70 75 76 73 70 70 81 93 84 82 83 78 80 79 72 62
93 96 93 95 58 67 56 60 62 66 77 81 65 64 61 48 62 56 34 42 49 52 49 62 60 53 53 57 64 68 72 70 70 61 67 80 98 80 65 56 54 57 64 63 62
93 94 93 92 60 75 60 77 68 54 85 79 62 54 51 48 53 39 34 42 57 65 57 70 64 54 51 61 55 76 63 66 64 68 78 55 91 73 59 59 62 61 57 60 60
95 96 88 75 73 76 76 75 63 48 98 63 59 44 57 57 64 51 30 44 61 57 52 65 63 62 70 64 51 64 47 52 55 63 71 69 73 68 51 57 50 53 57 58 57
97 97 83 74 74 75 79 67 47 70 94 70 58 75 79 62 59 53 45 43 49 63 68 76 57 56 60 56 47 42 42 44 49 57 80 70 64 74 64 53 44 49 51 51 49
98 89 74 74 87 82 71 56 71 81 78 76 81 85 84 73 67 61 59 56 61 71 85 75 76 62 53 53 43 41 46 61 66 65 73 50 54 65 52 49 50 44 42 42 40
97 69 74 77 79 71 63 62 82 77 80 82 85 84 75 71 67 72 61 65 55 67 73 77 85 69 56 66 59 59 56 62 71 69 62 46 62 55 47 40 31 31 33 35 34
84 61 80 87 76 66 65 75 79 81 80 88 91 84 72 69 72 67 58 61 50 54 75 75 83 57 50 53 55 57 69 59 62 58 64 56 54 43 38 30 28 29 29 30 31
74 63 86 85 74 64 68 69 66 63 71 68 77 68 85 81 79 72 66 50 55 55 59 66 84 57 53 48 61 61 49 63 63 77 82 68 64 55 47 41 35 31 29 29 29
68 68 79 80 61 73 77 65 57 57 64 62 63 64 65 68 71 72 65 53 55 60 55 59 70 66 54 68 65 64 67 65 60 68 72 70 64 48 47 37 34 31 29 29 28
68 77 71 72 78 70 73 59 51 54 60 51 52 54 62 66 65 62 62 61 58 62 62 54 63 82 75 61 63 60 69 68 76 73 77 69 65 41 38 33 32 32 30 29 28
71 66 60 68 80 76 63 55 49 56 55 49 49 53 53 59 59 58 58 54 58 53 53 50 54 77 77 59 45 59 58 60 79 68 74 78 70 38 34 34 33 33 33 31 31
66 74 64 62 57 65 66 58 58 50 41 52 54 47 51 52 48 53 54 51 58 54 50 53 59 62 78 69 60 66 61 56 69 76 80 77 58 48 43 40 37 37 36 35 34
63 64 59 69 63 60 54 51 58 54 43 49 43 42 49 48 58 46 55 60 51 45 49 56 69 68 65 68 68 70 62 52 56 60 72 63 62 54 49 46 41 40 40 39 39
62 61 53 55 53 55 50 50 50 49 43 45 42 55 47 48 51 65 60 54 54 51 63 52 65 70 78 67 66 61 57 61 56 51 49 50 54 53 50 46 43 43 44 44 44
49 45 48 51 51 52 50 51 49 46 41 27 39 55 46 50 49 53 57 59 61 62 54 50 55 62 75 66 70 75 65 50 45 49 58 63 57 57 57 52 48 49 48 47 48
Wind_Direction
340 336 332 329 327 325 322 318 317 316 313 311 309 308 305 302 297 299 304 308 310 302 305 308 302 300 298 294 295 295 283 282 287 291 294 301 298 297 297 288 290 290 288 293 302
339 335 331 327 324 320 316 316 313 311 311 310 311 311 310 306 298 298 306 303 300 285 289 287 289 291 291 288 289 283 280 283 289 288 290 296 294 294 292 292 288 287 290 294 297
339 336 332 328 323 319 315 315 313 311 308 309 309 310 311 310 306 311 322 316 302 273 289 289 290 287 284 287 283 283 280 285 289 290 290 291 291 293 290 286 285 289 291 293 295
339 335 331 327 323 320 318 315 312 311 310 310 311 312 312 317 302 320 329 343 330 301 295 285 283 282 282 279 281 281 283 284 289 292 290 287 292 289 287 287 294 293 291 290 292
337 334 331 327 324 322 319 317 314 310 308 309 312 316 317 305 300 311 311 317 310 295 285 283 280 282 279 284 282 279 283 285 285 286 285 286 285 286 281 286 288 288 287 287 288
336 334 331 327 325 321 318 315 314 313 313 311 312 317 312 300 314 313 303 293 286 280 282 283 286 284 286 285 279 290 285 285 286 284 285 283 283 286 290 296 292 290 289 289 288
335 333 331 328 326 323 319 315 313 312 312 315 315 313 305 299 312 306 299 285 282 279 281 281 286 281 287 286 286 289 285 285 283 284 284 289 280 280 283 287 288 290 293 294 293
335 332 330 326 322 320 315 309 312 315 324 323 322 318 304 312 310 296 295 286 284 285 287 284 282 283 283 291 292 288 288 283 290 284 288 280 279 290 293 289 290 291 293 295 296
335 331 329 326 322 318 312 312 315 327 331 335 328 319 309 319 309 303 290 281 278 282 286 286 279 279 280 278 281 282 279 281 285 284 287 277 283 287 293 292 289 290 290 290 293
338 333 330 328 324 318 316 317 329 331 332 329 322 314 313 314 318 312 296 285 280 273 279 275 276 272 270 267 274 278 277 278 279 286 282 280 279 283 285 286 286 287 287 287 287
339 333 329 324 324 325 330 334 326 321 321 312 311 302 304 309 311 309 299 281 278 265 265 266 266 262 265 266 275 282 279 280 283 287 285 280 279 281 284 285 285 285 286 286 286
343 339 335 332 334 341 343 337 335 321 306 307 302 296 296 299 294 291 285 272 267 265 264 272 265 270 273 272 273 274 276 277 283 285 283 282 279 283 283 282 283 282 282 284 288
347 345 344 339 354 348 346 341 334 329 310 309 309 306 307 300 286 282 267 268 267 265 259 266 279 277 267 270 270 271 272 277 279 288 286 286 281 283 287 288 287 286 285 284 286
348 346 344 341 348 344 340 333 332 333 307 308 312 315 318 314 299 294 269 269 272 266 267 271 267 278 270 269 270 273 277 276 278 282 280 288 281 283 286 286 286 286 288 287 287
347 345 346 354 345 339 335 333 333 331 301 315 314 330 317 302 304 306 286 269 266 268 266 271 274 265 266 271 267 277 282 276 277 277 282 280 282 286 288 284 286 289 290 290 288
346 344 348 350 346 341 337 335 335 311 297 308 314 310 311 305 300 301 295 279 281 272 268 270 278 273 272 271 266 275 276 280 281 280 277 276 276 280 282 285 288 292 294 292 292
348 349 355 353 342 341 342 336 315 302 315 306 304 308 305 300 299 296 286 273 271 269 265 267 266 270 270 268 263 255 267 272 273 271 275 282 274 276 286 287 287 294 299 298 296
351 1 1 357 352 350 346 328 309 312 308 310 308 305 299 305 296 298 288 277 272 276 272 264 266 258 259 255 263 253 253 264 270 269 275 278 275 281 288 293 294 302 303 306 305
358 6 2 358 358 357 345 325 317 316 314 308 306 299 294 300 299 295 296 286 287 291 270 269 265 271 270 258 250 260 251 263 271 277 274 273 277 285 295 288 298 299 306 306 311
4 3 1 1 5 6 351 335 329 331 325 319 307 304 294 293 290 290 283 291 290 297 289 275 268 265 262 264 257 259 255 258 261 263 264 268 268 270 279 279 286 292 297 302 309
9 3 5 7 16 8 353 347 345 341 337 325 316 310 305 300 294 284 280 285 296 295 293 285 268 266 261 256 255 255 257 258 264 260 263 264 266 278 279 280 280 288 295 299 305
9 1 10 12 5 6 360 359 355 349 344 340 329 320 312 306 295 289 285 283 295 293 284 290 274 264 260 269 262 257 256 252 255 257 257 265 266 288 280 284 284 284 290 300 305
5 5 14 15 2 3 5 4 1 352 349 348 338 331 324 312 299 294 291 297 296 293 282 288 276 268 259 260 264 258 270 269 255 261 256 254 261 281 280 278 283 283 286 294 300
6 0 7 14 17 8 4 4 359 0 358 347 336 335 328 318 313 300 298 298 299 290 293 282 271 268 258 261 271 261 273 274 260 256 255 256 257 266 275 275 280 283 287 290 295
9 4 8 360 6 6 8 7 -0 1 1 349 346 341 328 320 309 307 305 301 303 298 293 288 268 267 270 270 269 266 266 270 268 266 260 262 255 265 271 273 280 283 284 285 288
5 4 6 360 3 5 8 6 3 2 1 352 349 329 327 318 312 300 302 304 298 299 294 291 272 272 264 268 267 262 273 266 270 273 269 267 262 276 275 274 278 283 283 282 284
8 9 4 0 1 2 5 3 360 1 3 0 346 330 325 318 319 313 305 301 294 293 295 290 280 273 262 266 263 256 271 264 268 274 269 265 272 280 271 270 275 278 282 282 284